Location: *
(33.8649°S, 62.1526°E)
Time: 16:29:08
(UTC+00:00)

Cosmos 2074 Rocket - Pass Details

Date: 17 January 2021
Orbit: 967 x 987 km, 82.9° (Epoch: 03 March)

Event Time Altitude Azimuth Distance (km) Brightness Sun altitude
Rises 18:56:47 0° 190° (S) 3,690 8.1 -33.4°
Reaches altitude 10° 18:59:19 10° 192° (SSW) 2,738 7.2 -33.6°
Enters shadow 19:04:31 58° 225° (SW) 1,134 4.4 -33.9°
